Location: Oklahoma City
(35.4680°N, 97.5160°W)
Time: 17:10:39
(UTC-05:00)

ISS - Visible Passes

Search period start: 23 July 2014 00:00
Search period end: 02 August 2014 00:00
Orbit: 411 x 420 km, 51.6° (Epoch: 23 July)

Date Brightness Start Highest point End Pass type
(mag) Time Alt. Az. Time Alt. Az. Time Alt. Az.
23 Jul -0.3 04:22:24 10° NNW 04:22:40 10° NNW 04:22:57 10° NNW visible
24 Jul -0.3 03:34:23 13° NNW 03:34:23 13° NNW 03:35:31 10° N visible
25 Jul 0.4 02:47:15 10° NNE 02:47:15 10° NNE 02:47:16 10° NNE visible
29 Jul -0.2 05:58:03 10° NNW 06:00:13 16° NNE 06:02:23 10° ENE visible
30 Jul 0.1 05:10:05 10° N 05:11:11 11° NNE 05:12:16 10° NE visible
31 Jul -1.4 05:56:29 10° NNW 05:59:36 35° NE 06:02:43 10° ESE visible
01 Aug -0.6 05:07:59 10° NNW 05:10:41 22° NNE 05:13:22 10° E visible
01 Aug -2.4 21:48:01 10° SSW 21:50:31 29° SSE 21:50:31 29° SSE visible
